Temperature
15 13 13 13 12 14 15 14 13 13 13 13 13 12 12 13 13 14 14 15 15 15 16 17 17 17 17 17 16 16 15 14 14 13 13 12 12 11 11 11 10 10 9 9
13 12 13 13 13 13 13 13 13 12 13 13 12 12 12 12 13 13 13 14 15 16 16 16 16 16 16 16 16 15 15 14 13 13 12 11 11 11 11 10 10 10 9 9
14 14 14 13 13 13 13 13 13 14 13 12 12 13 13 13 13 13 13 14 14 15 15 15 15 15 15 15 15 14 14 13 13 12 11 11 11 11 10 10 10 10 9 9
12 12 13 14 14 14 13 13 13 13 12 11 12 12 13 13 13 13 13 14 14 14 15 15 14 14 14 14 13 13 13 13 12 12 11 11 11 10 10 10 9 9 9 8
13 14 14 14 14 13 13 14 13 13 12 11 11 11 11 12 13 12 12 13 14 14 14 14 13 13 13 13 13 12 12 12 12 11 11 11 10 10 10 9 9 9 9 8
13 14 15 15 14 14 13 12 11 9 9 12 12 11 12 11 12 12 12 13 13 13 13 13 13 12 12 12 12 12 12 11 11 11 10 10 10 10 9 9 9 9 8 8
14 14 14 14 14 14 13 13 12 13 12 12 12 10 11 12 11 11 12 13 14 13 13 13 12 12 12 12 11 11 11 11 10 10 10 9 9 9 9 8 8 8 8 8
14 14 14 14 14 13 13 13 13 13 12 11 11 10 11 11 10 11 13 14 13 13 12 12 12 11 11 11 11 10 10 10 10 9 9 9 8 8 8 8 7 7 7 7
12 13 14 13 14 13 12 11 11 10 11 10 10 10 10 11 10 10 12 12 13 12 12 12 11 11 11 10 10 10 9 9 9 8 8 8 8 7 7 7 7 7 7 6
13 14 14 13 13 12 12 10 9 10 12 11 11 10 11 12 11 10 10 12 12 12 11 11 11 10 10 10 9 9 9 8 8 8 7 7 7 7 7 6 6 6 6 6
13 13 13 13 12 12 11 11 10 9 9 10 10 11 11 11 10 10 10 11 12 11 11 10 10 10 9 9 9 8 8 7 7 7 6 6 6 6 6 6 6 6 6 5
11 11 11 12 12 12 11 11 9 11 10 8 8 10 11 9 10 10 11 11 11 11 10 10 10 9 9 8 8 7 7 7 6 6 6 6 6 5 5 5 5 5 5 5
10 11 12 13 12 11 11 10 9 9 8 6 7 10 10 9 9 10 10 10 10 10 10 9 9 9 8 7 7 7 6 6 6 5 5 5 5 5 5 5 5 4 4 4
11 10 11 12 12 11 11 10 9 8 8 7 7 10 10 9 9 9 9 9 9 9 9 8 8 8 7 6 6 6 5 5 5 5 5 5 4 4 4 4 4 4 3 3
11 11 11 11 11 11 11 11 9 8 8 9 9 8 9 9 8 9 9 9 9 8 8 7 7 6 6 5 5 5 5 5 4 4 4 4 4 4 3 3 3 3 3 2
9 10 10 10 10 9 9 9 9 8 8 8 8 8 8 8 8 8 8 8 8 8 7 6 6 5 5 4 4 4 4 4 4 4 4 3 3 3 3 2 2 2 2 1
8 8 9 8 8 9 8 9 9 8 7 7 8 8 7 6 7 8 8 8 7 7 6 5 5 5 4 4 3 3 3 3 3 3 3 3 2 2 2 1 1 1 0 0
7 8 7 7 9 9 10 10 9 8 8 7 7 7 7 7 8 8 8 7 6 6 5 5 4 4 4 3 3 3 3 3 3 2 2 2 1 1 1 0 0 -0 -1 -1
7 7 6 6 7 7 8 8 8 7 7 7 6 6 7 7 6 6 7 6 5 5 4 4 4 4 3 3 3 3 3 2 2 2 1 1 0 0 -0 -1 -1 -1 -2 -2
5 6 6 5 6 7 9 9 9 8 7 6 6 6 6 5 4 5 6 5 5 4 4 4 3 3 3 3 2 2 2 1 1 1 1 0 -0 -1 -1 -2 -2 -2 -3 -3
6 6 6 5 6 7 8 8 8 8 8 7 7 6 6 5 5 5 5 4 4 4 3 3 3 3 3 2 1 1 1 1 0 0 -0 -0 -1 -2 -2 -3 -3 -4 -4 -4
6 5 5 5 5 7 8 7 7 7 7 7 7 6 6 5 5 4 4 4 3 3 3 3 2 2 2 2 1 1 0 0 -0 -0 -1 -1 -2 -2 -3 -3 -4 -4 -5 -5
6 7 6 6 7 7 7 7 7 8 7 6 6 5 5 4 4 4 3 3 3 3 2 2 2 2 2 1 0 -0 -0 -1 -1 -1 -1 -2 -2 -3 -3 -4 -5 -5 -6 -6
5 5 4 4 5 6 6 7 7 7 6 6 5 5 4 4 3 3 3 3 2 2 2 1 1 1 1 1 0 -1 -1 -1 -2 -2 -2 -3 -3 -3 -4 -5 -6 -6 -6 -7
6 4 4 4 4 5 5 6 6 5 5 5 4 4 3 3 3 3 2 2 2 2 1 1 1 0 0 -0 -0 -1 -2 -2 -3 -3 -3 -4 -4 -5 -5 -6 -6 -7 -7 -7
4 4 4 5 5 4 5 6 5 5 4 4 3 3 3 3 2 2 2 2 1 1 1 1 0 -0 -0 -1 -1 -1 -2 -3 -4 -4 -4 -5 -5 -6 -6 -7 -7 -6 -6 -6
Wind_Speed
3 2 5 8 8 4 2 4 7 8 5 4 6 9 10 6 2 4 5 7 9 9 9 10 12 11 9 7 3 1 3 5 5 4 5 5 7 5 5 10 16 18 20 20
3 5 9 4 4 3 3 4 7 7 3 2 6 7 5 3 2 2 4 6 7 8 11 13 12 12 11 9 6 3 1 3 5 4 4 3 3 4 5 7 13 18 20 20
8 6 1 4 4 5 5 6 6 5 6 3 5 5 3 2 2 3 4 4 5 7 8 10 11 11 11 11 9 5 3 1 3 4 3 2 1 1 2 5 6 11 18 19
7 6 3 5 6 7 6 6 5 3 3 5 4 3 4 1 1 0 2 4 5 6 7 7 9 9 9 8 8 7 5 3 1 3 4 5 5 6 7 5 6 7 13 17
6 4 4 5 6 8 6 1 2 1 3 2 2 2 7 2 5 6 3 0 2 4 6 7 7 7 7 7 8 7 7 6 3 1 3 4 6 7 6 5 6 7 7 12
7 4 4 5 1 4 4 5 5 5 4 2 2 4 6 5 7 6 5 4 2 2 5 5 5 6 7 7 8 8 8 7 5 2 1 4 7 8 8 8 7 7 6 6
4 3 3 3 4 2 3 4 5 5 4 4 1 3 8 5 5 7 9 8 4 1 3 4 6 7 7 8 8 8 8 7 6 4 3 4 6 7 8 9 8 8 6 6
3 4 4 4 5 6 4 6 5 3 4 6 3 6 7 5 5 4 6 6 3 1 1 2 3 4 5 7 7 7 7 6 6 6 5 4 4 4 5 7 7 7 7 8
7 5 1 1 1 7 6 3 5 5 2 4 7 7 7 1 4 4 5 4 2 1 1 2 3 4 4 6 6 6 6 6 7 7 6 6 5 5 6 7 6 6 7 8
9 4 1 1 4 4 4 8 5 4 2 4 7 6 5 5 4 4 3 3 2 1 1 3 3 3 4 4 5 6 5 6 6 7 6 6 6 6 6 6 8 8 8 8
6 5 1 1 6 7 5 4 5 4 4 4 5 7 6 7 7 7 5 3 2 2 1 2 3 4 4 5 6 6 6 6 7 7 7 7 8 7 7 7 8 8 8 9
5 5 3 5 1 3 6 7 8 5 5 5 4 8 4 4 5 5 3 2 0 1 0 1 3 4 5 6 7 7 7 7 8 7 7 8 8 8 8 9 9 9 9 9
7 6 2 3 3 1 3 5 5 5 5 6 6 8 2 3 3 3 2 1 1 1 1 2 4 5 6 7 7 8 8 8 8 7 8 9 9 9 9 10 10 10 10 11
6 5 7 8 7 7 5 6 7 7 5 7 10 9 4 4 3 2 2 2 1 1 2 4 5 6 7 7 7 8 9 8 8 8 8 9 10 10 10 10 11 11 11 11
5 5 6 6 3 4 7 8 9 11 10 12 10 10 9 7 6 4 4 3 1 1 4 5 6 6 7 7 8 8 9 9 8 9 10 10 11 10 10 11 11 12 12 13
4 4 3 2 0 2 6 11 12 12 10 10 10 10 4 2 3 3 3 3 1 3 5 6 7 7 8 8 8 9 9 10 9 10 11 11 11 11 11 12 13 13 13 13
5 7 5 4 2 5 9 11 11 7 7 8 9 7 3 3 3 3 3 2 2 4 6 6 7 7 8 8 8 9 9 10 10 11 12 12 12 13 13 14 13 14 14 13
8 8 5 2 2 8 8 1 6 6 5 6 5 4 5 4 2 3 3 2 2 5 5 6 6 7 7 7 8 9 9 10 10 11 12 12 12 14 14 14 14 15 13 14
5 8 5 4 4 9 9 4 6 7 5 4 7 6 3 1 3 3 1 1 2 4 5 5 6 7 7 8 9 9 10 10 11 12 12 12 13 14 15 16 16 15 15 15
4 4 6 5 5 8 7 2 4 5 4 4 7 6 4 3 1 3 2 3 4 5 4 5 6 7 8 9 9 10 11 11 13 13 13 13 13 14 16 17 17 15 14 16
5 4 6 6 7 9 7 3 5 4 6 6 7 6 6 5 5 4 4 4 4 5 6 6 7 8 9 9 9 11 12 13 13 13 14 14 13 14 16 16 15 15 16 16
9 8 8 7 7 10 3 6 7 5 5 6 6 5 4 4 3 3 4 5 6 6 7 7 8 9 10 9 9 12 13 14 13 13 14 15 14 14 14 15 16 15 15 17
8 8 7 9 8 2 1 4 3 6 6 4 4 2 2 2 2 4 4 5 6 7 8 7 9 11 11 10 9 13 15 14 14 15 15 15 15 13 13 14 16 16 14 14
4 3 5 4 5 2 2 4 4 4 4 3 3 2 2 2 3 5 5 6 7 8 8 8 9 11 13 11 10 11 14 14 14 15 16 15 15 15 13 11 12 13 14 14
5 6 4 4 3 2 2 3 4 4 4 4 3 1 1 2 4 5 6 7 8 8 8 8 10 12 14 13 12 12 12 12 14 15 15 14 13 14 15 13 12 14 13 16
4 6 7 6 6 6 5 4 4 4 3 3 2 0 1 2 5 6 7 8 8 9 9 10 11 12 14 14 14 12 11 11 13 14 14 13 13 13 13 15 16 19 21 26
Wind_Direction
41 69 230 224 207 209 212 240 267 267 286 300 277 288 303 321 91 81 47 31 26 18 0 16 26 30 39 38 40 203 198 192 167 168 189 208 227 226 227 228 227 223 222 219
22 266 242 209 183 197 215 259 273 289 304 293 304 304 314 28 88 90 67 42 29 19 17 18 23 30 32 28 19 3 259 203 189 185 176 187 201 222 224 228 231 228 226 224
212 239 174 153 175 192 225 219 244 273 326 7 339 347 21 36 50 51 44 38 34 35 28 19 21 23 25 24 13 9 355 230 201 181 151 127 96 317 260 238 236 233 231 230
235 261 226 215 224 189 255 234 213 243 326 307 21 310 265 232 277 335 28 25 31 30 35 31 26 22 20 13 13 20 20 29 111 165 177 196 216 239 244 238 241 239 230 232
247 230 200 214 226 183 215 103 149 203 190 304 347 198 281 243 224 225 214 179 46 39 44 38 28 23 19 15 20 21 30 34 33 124 205 218 241 251 266 267 262 257 244 236
244 250 223 217 147 157 136 87 70 62 82 313 223 176 275 225 215 207 202 203 192 61 46 36 26 29 22 19 21 20 27 24 18 14 277 239 255 268 281 281 275 272 262 250
277 247 231 152 121 70 106 82 9 350 5 265 236 204 252 254 238 207 191 195 195 112 55 28 24 22 16 12 9 10 17 9 2 359 328 282 268 269 270 277 278 280 278 268
248 275 225 191 182 173 167 140 157 237 265 291 302 238 256 292 296 208 168 164 164 127 60 31 25 24 9 3 0 360 0 351 347 346 330 310 289 275 272 273 273 273 272 271
192 246 47 98 126 138 133 152 154 134 168 276 287 293 305 26 46 103 130 146 185 198 8 16 18 17 2 350 344 341 340 335 334 334 328 322 314 298 289 287 279 275 273 277
165 200 171 81 97 31 139 140 108 129 189 277 294 283 253 222 191 175 181 209 238 254 346 8 6 353 341 331 324 329 330 321 318 324 322 316 312 303 295 293 291 288 285 282
158 165 207 149 192 187 127 132 125 124 160 182 271 275 229 210 196 193 210 232 240 230 304 337 330 326 325 325 326 327 328 326 323 322 317 315 310 306 303 294 289 288 287 287
153 131 216 251 239 172 175 175 153 167 217 190 210 268 287 197 183 178 202 238 176 123 115 317 321 326 328 327 327 326 322 319 314 311 310 307 304 304 302 296 293 291 289 286
139 124 80 348 355 81 189 180 174 142 136 170 191 258 324 115 117 147 171 176 69 56 16 344 332 324 322 322 321 319 316 312 310 310 308 306 303 301 298 295 294 293 290 288
123 138 177 206 217 187 199 194 174 155 181 214 222 242 253 242 241 239 204 174 148 22 348 334 321 314 314 315 314 314 312 311 310 308 306 302 299 297 293 292 292 291 289 288
120 183 220 238 224 191 217 217 202 203 207 221 236 232 241 234 229 214 190 169 140 351 333 322 314 311 313 317 316 315 311 310 309 307 304 298 296 295 294 293 292 290 287 286
117 166 176 263 344 237 257 245 231 230 228 235 257 265 240 192 134 150 176 175 205 309 311 312 313 313 313 313 312 312 309 309 310 305 300 298 298 298 296 295 294 293 291 288
146 139 151 249 308 344 273 242 220 215 210 200 228 236 151 130 154 195 206 197 261 299 302 304 305 302 303 303 305 305 302 306 306 301 299 299 299 298 297 297 298 296 295 291
148 146 155 177 118 242 246 200 177 189 220 199 181 153 147 161 233 259 208 190 288 302 300 302 301 301 302 300 303 301 302 304 303 301 299 298 299 299 299 299 297 297 295 293
149 143 141 158 224 274 287 238 178 182 231 188 160 156 149 67 10 329 177 136 282 288 287 284 286 290 297 301 302 306 305 305 303 302 300 300 301 301 302 301 300 299 298 297
79 116 139 156 196 244 251 181 158 123 235 198 157 161 163 120 32 269 275 328 311 308 299 296 299 301 302 301 304 305 303 304 303 302 301 301 300 300 301 300 300 300 298 297
127 150 180 187 219 258 251 196 134 180 239 164 161 173 178 189 209 247 312 316 310 307 303 302 302 299 295 297 302 300 301 299 299 300 301 301 299 297 297 298 299 300 300 299
174 176 189 170 202 249 204 143 179 193 137 147 163 179 192 218 261 298 308 305 308 306 303 302 299 296 296 296 297 298 299 299 301 303 303 303 301 300 303 300 302 301 300 301
200 193 187 194 211 270 143 162 143 134 139 156 162 169 172 224 274 294 293 295 295 293 292 290 288 293 295 292 289 294 299 302 305 306 305 305 304 300 297 299 302 304 302 301
232 158 163 223 250 222 132 118 111 113 125 125 125 136 156 228 271 283 285 288 291 290 290 290 293 296 298 296 290 286 295 301 303 305 306 306 307 306 302 298 299 301 302 301
209 165 180 228 226 139 208 181 147 115 101 95 87 100 184 243 270 272 279 284 285 288 288 289 290 293 294 296 293 291 292 298 301 303 304 305 304 303 305 302 299 300 295 294
192 179 182 216 202 183 205 187 153 136 133 135 139 231 269 242 260 273 276 278 282 286 289 292 290 290 293 295 295 294 292 292 297 304 306 307 306 306 305 306 305 300 300 302
Height
1532 1536 1538 1536 1535 1535 1535 1538 1540 1536 1530 1529 1528 1526 1521 1518 1518 1518 1518 1517 1516 1516 1516 1514 1512 1511 1510 1509 1509 1509 1509 1510 1510 1511 1513 1514 1515 1516 1517 1518 1519 1519 1520 1520
1536 1537 1530 1530 1531 1534 1536 1538 1539 1534 1529 1530 1529 1527 1521 1519 1520 1520 1519 1519 1518 1518 1517 1516 1515 1513 1512 1511 1510 1510 1509 1509 1509 1510 1511 1511 1512 1512 1513 1513 1513 1513 1513 1513
1534 1530 1526 1529 1531 1534 1535 1537 1534 1533 1531 1530 1530 1526 1523 1521 1521 1521 1521 1520 1519 1519 1518 1518 1517 1516 1515 1513 1512 1511 1510 1509 1509 1509 1509 1509 1509 1509 1509 1508 1508 1508 1507 1506
1531 1527 1527 1527 1529 1530 1535 1529 1530 1531 1535 1538 1535 1538 1527 1523 1522 1522 1521 1520 1520 1520 1520 1519 1519 1518 1517 1516 1515 1513 1512 1511 1510 1509 1508 1508 1507 1506 1505 1504 1503 1502 1501 1500
1527 1524 1524 1526 1524 1526 1527 1526 1528 1531 1535 1540 1538 1540 1532 1524 1523 1522 1521 1521 1521 1521 1521 1520 1520 1520 1519 1518 1517 1515 1514 1512 1511 1509 1508 1506 1505 1503 1502 1500 1498 1497 1495 1493
1523 1521 1520 1520 1520 1522 1524 1528 1533 1539 1542 1542 1534 1540 1531 1526 1520 1519 1519 1520 1520 1521 1521 1521 1521 1521 1520 1519 1518 1516 1514 1513 1511 1509 1507 1505 1503 1500 1498 1496 1494 1492 1490 1487
1522 1520 1518 1518 1521 1523 1525 1533 1542 1538 1543 1540 1534 1538 1530 1517 1516 1515 1516 1518 1519 1521 1521 1521 1521 1521 1520 1519 1517 1516 1514 1512 1510 1508 1505 1503 1500 1497 1494 1492 1489 1486 1484 1481
1525 1526 1517 1517 1518 1523 1525 1530 1541 1543 1547 1544 1536 1536 1523 1514 1512 1511 1514 1517 1519 1520 1520 1520 1520 1520 1519 1518 1516 1515 1513 1510 1508 1505 1503 1500 1496 1493 1490 1487 1484 1481 1478 1475
1525 1524 1517 1516 1517 1519 1527 1530 1532 1543 1545 1548 1540 1532 1520 1513 1513 1512 1514 1516 1517 1518 1519 1519 1519 1519 1518 1517 1515 1513 1510 1508 1505 1502 1499 1496 1493 1489 1486 1483 1480 1476 1473 1469
1515 1519 1517 1517 1518 1521 1522 1528 1538 1542 1544 1546 1540 1534 1525 1515 1514 1514 1514 1515 1516 1517 1517 1518 1518 1517 1516 1515 1513 1510 1508 1505 1501 1498 1495 1492 1488 1485 1481 1478 1474 1471 1467 1463
1512 1518 1519 1519 1520 1521 1526 1528 1532 1541 1543 1546 1546 1532 1514 1511 1511 1512 1513 1513 1514 1515 1516 1516 1516 1515 1514 1512 1510 1507 1504 1501 1498 1494 1491 1487 1484 1480 1476 1473 1468 1464 1460 1456
1511 1520 1524 1520 1518 1517 1519 1523 1530 1535 1538 1545 1545 1531 1508 1508 1508 1510 1511 1512 1513 1514 1514 1514 1514 1513 1511 1509 1506 1503 1500 1497 1493 1490 1486 1482 1478 1475 1470 1466 1462 1457 1452 1448
1509 1518 1525 1523 1524 1521 1520 1521 1525 1529 1536 1546 1544 1525 1509 1508 1508 1509 1510 1511 1512 1512 1513 1512 1512 1510 1508 1505 1502 1499 1496 1492 1489 1485 1481 1477 1473 1468 1464 1459 1454 1450 1444 1439
1503 1514 1519 1522 1518 1517 1517 1519 1522 1526 1533 1536 1529 1516 1509 1508 1507 1508 1509 1509 1510 1510 1510 1510 1508 1506 1504 1501 1498 1495 1491 1488 1484 1480 1475 1471 1466 1461 1456 1451 1446 1441 1436 1430
1503 1511 1512 1512 1511 1513 1513 1513 1516 1519 1517 1518 1511 1510 1505 1505 1505 1506 1507 1508 1508 1508 1508 1507 1505 1503 1500 1497 1494 1490 1487 1483 1479 1474 1469 1465 1460 1454 1449 1444 1438 1432 1427 1421
1503 1509 1511 1512 1511 1513 1514 1510 1509 1509 1509 1509 1506 1504 1501 1501 1502 1504 1505 1506 1506 1506 1505 1504 1501 1499 1496 1492 1489 1485 1481 1477 1473 1468 1463 1458 1452 1447 1441 1435 1429 1423 1417 1411
1505 1510 1515 1517 1515 1512 1512 1499 1499 1501 1500 1502 1503 1501 1500 1501 1502 1503 1503 1504 1504 1504 1502 1500 1498 1495 1492 1488 1485 1481 1476 1472 1467 1462 1457 1451 1445 1438 1432 1426 1420 1413 1406 1400
1504 1508 1515 1519 1515 1516 1497 1491 1492 1494 1495 1496 1496 1498 1499 1500 1501 1501 1502 1502 1502 1501 1499 1496 1494 1491 1488 1484 1480 1476 1472 1467 1461 1455 1449 1444 1437 1430 1423 1417 1410 1403 1397 1390
1498 1504 1515 1520 1518 1509 1495 1490 1491 1494 1494 1493 1495 1497 1498 1499 1499 1499 1500 1500 1499 1497 1495 1493 1490 1487 1484 1480 1476 1471 1466 1460 1455 1448 1442 1436 1429 1422 1414 1407 1401 1394 1387 1379
1500 1501 1511 1518 1515 1508 1491 1486 1486 1490 1493 1492 1492 1495 1497 1498 1501 1500 1498 1497 1495 1494 1492 1489 1486 1483 1479 1475 1470 1465 1459 1454 1448 1441 1434 1428 1422 1414 1407 1399 1392 1385 1378 1370
1503 1505 1508 1512 1510 1498 1485 1484 1486 1494 1489 1489 1490 1493 1494 1495 1497 1496 1495 1493 1492 1490 1488 1485 1482 1478 1474 1470 1465 1459 1453 1447 1441 1434 1427 1420 1414 1407 1399 1391 1384 1376 1369 1361
1493 1499 1504 1507 1508 1496 1482 1483 1486 1485 1485 1487 1489 1491 1492 1492 1492 1492 1491 1490 1488 1486 1484 1481 1477 1473 1469 1465 1459 1452 1446 1440 1433 1426 1418 1411 1405 1398 1391 1383 1375 1368 1361 1353
1485 1484 1486 1488 1485 1481 1479 1480 1481 1482 1485 1486 1488 1489 1489 1489 1489 1489 1488 1486 1484 1482 1479 1476 1472 1467 1463 1459 1453 1446 1439 1432 1425 1417 1410 1403 1395 1389 1382 1375 1367 1359 1353 1346
1480 1479 1482 1484 1480 1479 1479 1480 1481 1483 1484 1485 1486 1487 1487 1487 1486 1486 1484 1482 1480 1477 1474 1470 1466 1460 1456 1451 1446 1440 1433 1425 1417 1409 1402 1394 1387 1379 1373 1367 1360 1353 1346 1340
1474 1478 1479 1480 1478 1478 1479 1479 1480 1482 1482 1483 1484 1484 1484 1484 1483 1482 1480 1478 1476 1472 1469 1465 1460 1454 1449 1443 1438 1432 1426 1418 1410 1402 1394 1387 1379 1372 1365 1358 1354 1347 1341 1337
1471 1473 1476 1475 1473 1475 1476 1477 1479 1480 1481 1482 1482 1482 1482 1482 1480 1479 1476 1474 1471 1467 1463 1458 1453 1448 1442 1436 1430 1424 1418 1411 1403 1395 1387 1380 1372 1365 1358 1351 1344 1339 1335 1329